Location: Saluda
(35.2377°N, 82.3468°W)
Time: 03:42:45
(UTC+00:00)

Vanguard 2 Rocket - Pass Details

Date: 04 October 2022
Orbit: 555 x 3321 km, 32.9° (Epoch: 05 December)

Event Time Altitude Azimuth Distance (km) Brightness Sun altitude
Rises 09:35:50 0° 278° (W) 4,226 - -23.3°
Reaches altitude 10° 09:39:51 10° 265° (W) 2,799 - -22.5°
Maximum altitude 09:44:35 22° 216° (SW) 1,636 - -21.6°
Exits shadow 09:45:49 20° 195° (SSW) 1,625 7.9 -21.3°
Drops below altitude 10° 09:48:08 10° 164° (SSE) 2,030 8.8 -20.9°
Sets 09:50:32 0° 147° (SSE) 2,796 9.7 -20.4°
